Beach, ND

1:49 PM MDT on June 25, 2017 (GMT -0600)
Beach

Weather History for K20U - November, 2012

Change the Weather History Date:

Saturday, November 24, 2012

  Actual Average (KGDV) Record (KGDV)
Temperature  
Mean Temperature 34 °F -  
Max Temperature 44 °F 35 °F 57 °F (1997)
Min Temperature 23 °F 18 °F -18 °F (1996)
Degree Days  
Heating Degree Days 32    
Moisture  
Dew Point 26 °F    
Average Humidity 78    
Maximum Humidity 100    
Minimum Humidity 56    
Precipitation  
Precipitation 18.21 in - - ()
Sea Level Pressure  
Sea Level Pressure 29.90 in    
Wind  
Wind Speed 10 mph (West)    
Max Wind Speed 22 mph    
Max Gust Speed 32 mph    
Visibility 10 miles    
Events Rain    
Averages and records for this station are not official NWS values.
T = Trace of Precipitation, MM = Missing Value Source: NWS Daily Summary

Daily Weather History Graph

Daily Weather History Graph

Search for Another Location

Airport or City:

Trip Planner

Search our weather history database for the weather conditions in past years. The results will help you decide how hot, cold, wet, or windy it might be!

Date:

Astronomy

Nov. 24, 2012 Rise Set
Actual Time 7:12 AM MST 4:12 PM MST
Civil Twilight 6:38 AM MST 4:46 PM MST
Nautical Twilight 6:00 AM MST 5:24 PM MST
Astronomical Twilight 5:24 AM MST 6:00 PM MST
Moon 2:08 PM MST (11/24) 3:20 AM MST (11/24)
Length of Visible Light 10h 08m
Length of Day
9h 00m
Waxing Gibbous, 87% of the Moon is Illuminated
Nov 24
Waxing Gibbous
Nov 28
Full
Dec 6
Last Quarter
Dec 13
New
Dec 19
First Quarter

Hourly Weather History & Observations

Time (MST) Temp. Windchill Dew Point Humidity Pressure Visibility Wind Dir Wind Speed Gust Speed Precip Events Conditions
12:15 AM 26.6 °F 16.8 °F 19.4 °F 74% 29.97 in 10.0 mi SSE 10.4 mph - N/A   Clear
12:35 AM 26.6 °F 17.5 °F 19.4 °F 74% 29.96 in 10.0 mi SSE 9.2 mph - N/A   Clear
12:55 AM 26.6 °F 16.2 °F 19.4 °F 74% 29.94 in 10.0 mi South 11.5 mph - N/A   Clear
1:15 AM 26.6 °F 17.5 °F 19.4 °F 74% 29.93 in 10.0 mi SSE 9.2 mph - N/A   Clear
1:35 AM 26.6 °F 16.8 °F 19.4 °F 74% 29.92 in 10.0 mi South 10.4 mph - N/A   Clear
1:55 AM 26.6 °F 16.8 °F 19.4 °F 74% 29.91 in 10.0 mi South 10.4 mph - N/A   Clear
2:15 AM 26.6 °F 17.5 °F 19.4 °F 74% 29.91 in 10.0 mi South 9.2 mph - N/A   Clear
2:35 AM 26.6 °F 17.5 °F 19.4 °F 74% 29.89 in 10.0 mi South 9.2 mph - N/A   Clear
2:55 AM 26.6 °F 18.2 °F 19.4 °F 74% 29.88 in 10.0 mi South 8.1 mph - N/A   Clear
3:15 AM 24.8 °F 16.1 °F 19.4 °F 80% 29.88 in 10.0 mi SSE 8.1 mph - N/A   Clear
3:35 AM 24.8 °F 17.9 °F 19.4 °F 80% 29.87 in 10.0 mi South 5.8 mph - N/A   Clear
3:55 AM 24.8 °F 16.1 °F 19.4 °F 80% 29.87 in 10.0 mi South 8.1 mph - N/A   Clear
4:15 AM 24.8 °F 14.6 °F 19.4 °F 80% 29.85 in 10.0 mi South 10.4 mph - N/A   Clear
4:35 AM 24.8 °F 16.1 °F 19.4 °F 80% 29.85 in 10.0 mi South 8.1 mph - N/A   Clear
4:55 AM 24.8 °F 16.1 °F 19.4 °F 80% 29.84 in 10.0 mi South 8.1 mph - N/A   Clear
5:15 AM 24.8 °F 17.9 °F 21.2 °F 86% 29.84 in 10.0 mi SSW 5.8 mph - N/A   Clear
5:35 AM 26.6 °F 21.2 °F 23.0 °F 86% 29.84 in 10.0 mi ESE 4.6 mph - N/A   Clear
5:55 AM 30.2 °F 25.4 °F 21.2 °F 69% 29.83 in 10.0 mi WSW 4.6 mph - N/A   Clear
6:15 AM 35.6 °F 26.6 °F 21.2 °F 56% 29.83 in 10.0 mi WSW 13.8 mph 19.6 mph N/A   Clear
6:35 AM 35.6 °F 26.6 °F 21.2 °F 56% 29.83 in 10.0 mi West 13.8 mph 21.9 mph N/A   Mostly Cloudy
6:55 AM 37.4 °F 28.5 °F 23.0 °F 56% 29.84 in 10.0 mi West 15.0 mph - N/A   Overcast
7:15 AM 37.4 °F 28.9 °F 23.0 °F 56% 29.84 in 10.0 mi West 13.8 mph - N/A   Overcast
7:35 AM 37.4 °F 28.5 °F 23.0 °F 56% 29.84 in 10.0 mi West 15.0 mph 18.4 mph N/A   Overcast
7:55 AM 37.4 °F 28.9 °F 23.0 °F 56% 29.85 in 10.0 mi West 13.8 mph - N/A   Overcast
8:15 AM 37.4 °F 30.8 °F 28.4 °F 70% 29.86 in 9.0 mi West 9.2 mph - N/A Rain Light Rain
8:35 AM 35.6 °F 29.9 °F 28.4 °F 75% 29.85 in 10.0 mi WSW 6.9 mph - N/A Rain Light Rain
8:55 AM 37.4 °F 34.9 °F 28.4 °F 70% 29.86 in 10.0 mi WNW 3.5 mph - 0.74 in Rain Heavy Rain
9:15 AM 37.4 °F 30.8 °F 30.2 °F 75% 29.85 in 10.0 mi WSW 9.2 mph - 0.73 in Rain Heavy Rain
9:35 AM 39.2 °F 32.5 °F 32.0 °F 75% 29.86 in 10.0 mi WSW 10.4 mph - 1.79 in Rain Heavy Rain
9:55 AM 39.2 °F 31.2 °F 32.0 °F 75% 29.86 in 10.0 mi WSW 13.8 mph 18.4 mph 2.63 in Rain Heavy Rain
10:15 AM 41.0 °F 33.5 °F 32.0 °F 70% 29.86 in 10.0 mi West 13.8 mph - 0.31 in Rain Heavy Rain
10:35 AM 41.0 °F 33.1 °F 32.0 °F 70% 29.86 in 10.0 mi West 15.0 mph 19.6 mph 0.87 in Rain Rain
10:55 AM 41.0 °F 33.1 °F 32.0 °F 70% 29.85 in 10.0 mi West 15.0 mph - 1.16 in Rain Light Rain
11:15 AM 42.8 °F 34.5 °F 32.0 °F 66% 29.85 in 10.0 mi West 18.4 mph 21.9 mph 0.34 in Rain Heavy Rain
11:35 AM 42.8 °F 34.8 °F 32.0 °F 66% 29.84 in 10.0 mi West 17.3 mph - 0.74 in Rain Heavy Rain
11:55 AM 44.6 °F 37.2 °F 33.8 °F 66% 29.84 in 10.0 mi West 17.3 mph 26.5 mph 1.08 in Rain Heavy Rain
12:15 PM 44.6 °F 36.1 °F 32.0 °F 61% 29.84 in 10.0 mi WNW 21.9 mph 27.6 mph 0.49 in Rain Heavy Rain
12:35 PM 44.6 °F 36.1 °F 32.0 °F 61% 29.84 in 10.0 mi WNW 21.9 mph 32.2 mph 1.30 in Rain Heavy Rain
12:55 PM 42.8 °F 35.4 °F 32.0 °F 66% 29.85 in 10.0 mi WNW 15.0 mph 26.5 mph 1.82 in Rain Heavy Rain
1:15 PM 42.8 °F 35.8 °F 32.0 °F 66% 29.84 in 10.0 mi WNW 13.8 mph 24.2 mph 0.46 in Rain Heavy Rain
1:35 PM 41.0 °F 33.1 °F 32.0 °F 70% 29.84 in 10.0 mi NW 15.0 mph - 1.13 in Rain Heavy Rain
1:55 PM 41.0 °F 32.5 °F 32.0 °F 70% 29.85 in 10.0 mi WNW 17.3 mph 20.7 mph 1.60 in Rain Heavy Rain
2:15 PM 41.0 °F 32.8 °F 32.0 °F 70% 29.85 in 10.0 mi WNW 16.1 mph - 0.27 in Rain Heavy Rain
2:35 PM 39.2 °F 30.8 °F 32.0 °F 75% 29.87 in 10.0 mi NW 15.0 mph - 0.40 in Rain Light Rain
2:55 PM 39.2 °F 30.8 °F 32.0 °F 75% 29.87 in 10.0 mi NW 15.0 mph - 0.75 in   Overcast
3:15 PM 37.4 °F 28.9 °F 30.2 °F 75% 29.89 in 10.0 mi NNW 13.8 mph - 0.01 in   Overcast
3:35 PM 37.4 °F 29.8 °F 30.2 °F 75% 29.90 in 10.0 mi NNW 11.5 mph - 0.29 in Rain Heavy Rain
3:55 PM 35.6 °F 27.1 °F 28.4 °F 75% 29.91 in 10.0 mi NNW 12.7 mph - 0.78 in Rain Heavy Rain
4:15 PM 33.8 °F 25.8 °F 28.4 °F 81% 29.91 in 10.0 mi North 10.4 mph - 0.16 in Rain Heavy Rain
4:35 PM 32.0 °F 24.8 °F 28.4 °F 87% 29.92 in 10.0 mi NNW 8.1 mph - 0.59 in Rain Light Rain
4:55 PM 33.8 °F 26.4 °F 30.2 °F 87% 29.93 in 10.0 mi NW 9.2 mph - 0.71 in Rain Light Rain
5:15 PM 33.8 °F 29.6 °F 28.4 °F 81% 29.93 in 10.0 mi NNW 4.6 mph - 0.38 in Rain Heavy Rain
5:35 PM 32.0 °F 27.5 °F 28.4 °F 87% 29.93 in 10.0 mi NW 4.6 mph - 0.88 in Rain Rain
5:55 PM 32.0 °F 24.8 °F 28.4 °F 87% 29.94 in 10.0 mi NW 8.1 mph - 1.68 in Rain Heavy Rain
6:15 PM 32.0 °F 23.0 °F 28.4 °F 87% 29.96 in 10.0 mi NW 11.5 mph - 0.34 in Rain Heavy Rain
6:35 PM 32.0 °F 22.5 °F 26.6 °F 80% 29.96 in 10.0 mi NW 12.7 mph - 0.72 in Rain Heavy Rain
6:55 PM 32.0 °F 24.2 °F 26.6 °F 80% 29.95 in 10.0 mi NW 9.2 mph - 1.09 in Rain Heavy Rain
7:15 PM 30.2 °F 22.6 °F 26.6 °F 86% 29.95 in 10.0 mi NW 8.1 mph - 0.46 in Rain Light Freezing Rain
7:35 PM 28.4 °F 19.7 °F 24.8 °F 86% 29.95 in 10.0 mi NW 9.2 mph - 0.97 in Rain Light Freezing Rain
7:55 PM 26.6 °F 16.8 °F 24.8 °F 93% 29.96 in 10.0 mi NW 10.4 mph - 1.60 in Rain Light Freezing Rain
8:15 PM 26.6 °F 17.5 °F 24.8 °F 93% 29.96 in 10.0 mi NW 9.2 mph - 0.22 in Rain Light Freezing Rain
8:35 PM 26.6 °F 18.2 °F 24.8 °F 93% 29.96 in 10.0 mi WNW 8.1 mph - 0.59 in Rain Light Freezing Rain
8:55 PM 26.6 °F 19.1 °F 24.8 °F 93% 29.97 in 10.0 mi WNW 6.9 mph - 0.73 in Rain Light Freezing Rain
9:15 PM 24.8 °F 16.9 °F 24.8 °F 100% 29.97 in 10.0 mi WNW 6.9 mph - 0.22 in Rain Light Freezing Rain
9:35 PM 26.6 °F 18.2 °F 24.8 °F 93% 29.98 in 10.0 mi West 8.1 mph - 0.60 in Rain Light Freezing Rain
9:55 PM 26.6 °F 19.1 °F 24.8 °F 93% 29.98 in 10.0 mi NW 6.9 mph - 0.85 in Rain Light Freezing Rain
10:15 PM 24.8 °F 17.9 °F 23.0 °F 93% 29.98 in 10.0 mi WNW 5.8 mph - 0.15 in Rain Light Freezing Rain
10:35 PM 23.0 °F 17.0 °F 23.0 °F 100% 29.98 in 10.0 mi SSW 4.6 mph - 0.42 in Rain Light Freezing Rain
10:55 PM 24.8 °F 17.9 °F 24.8 °F 100% 29.98 in 10.0 mi West 5.8 mph - 0.68 in Rain Light Freezing Rain
11:15 PM 24.8 °F 15.3 °F 24.8 °F 100% 30.00 in 10.0 mi WNW 9.2 mph - 0.07 in Rain Light Freezing Rain
11:35 PM 24.8 °F 15.3 °F 24.8 °F 100% 30.00 in 10.0 mi WNW 9.2 mph - 0.24 in Rain Light Freezing Rain
11:55 PM 24.8 °F 15.3 °F 24.8 °F 100% 30.00 in 10.0 mi West 9.2 mph - 0.31 in Rain Light Freezing Rain